Year,Month,Day,Hour,Minute,Value (Times are PST for temperature in C)
2013,07,05,00,00,14.80
2013,07,05,00,01,14.80
2013,07,05,00,02,14.80
2013,07,05,00,03,14.80
2013,07,05,00,04,14.80
2013,07,05,00,05,14.80
2013,07,05,00,06,14.80
2013,07,05,00,07,14.70
2013,07,05,00,08,14.70
2013,07,05,00,09,14.70
2013,07,05,00,10,14.70
2013,07,05,00,11,14.70
2013,07,05,00,12,14.70
2013,07,05,00,13,14.70
2013,07,05,00,14,14.70
2013,07,05,00,15,14.70
2013,07,05,00,16,14.60
2013,07,05,00,17,14.60
2013,07,05,00,18,14.60
2013,07,05,00,19,14.60
2013,07,05,00,20,14.60
2013,07,05,00,21,14.60
2013,07,05,00,22,14.60
2013,07,05,00,23,14.60
2013,07,05,00,24,14.60
2013,07,05,00,25,14.50
2013,07,05,00,26,14.50
2013,07,05,00,27,14.50
2013,07,05,00,28,14.50
2013,07,05,00,29,14.50
2013,07,05,00,30,14.50
2013,07,05,00,31,14.40
2013,07,05,00,32,14.40
2013,07,05,00,33,14.40
2013,07,05,00,34,14.40
2013,07,05,00,35,14.40
2013,07,05,00,36,14.40
2013,07,05,00,37,14.30
2013,07,05,00,38,14.30
2013,07,05,00,39,14.30
2013,07,05,00,40,14.30
2013,07,05,00,41,14.30
2013,07,05,00,42,14.30
2013,07,05,00,43,14.30
2013,07,05,00,44,14.30
2013,07,05,00,45,14.30
2013,07,05,00,46,14.30
2013,07,05,00,47,14.20
2013,07,05,00,48,14.20
2013,07,05,00,49,14.20
2013,07,05,00,50,14.20
2013,07,05,00,51,14.20
2013,07,05,00,52,14.20
2013,07,05,00,53,14.20
2013,07,05,00,54,14.20
2013,07,05,00,55,14.10
2013,07,05,00,56,14.10
2013,07,05,00,57,14.10
2013,07,05,00,58,14.10
2013,07,05,00,59,14.10
2013,07,05,01,00,14.00
2013,07,05,01,01,14.00
2013,07,05,01,02,14.00
2013,07,05,01,03,13.90
2013,07,05,01,04,13.90
2013,07,05,01,05,13.90
2013,07,05,01,06,13.90
2013,07,05,01,07,13.90
2013,07,05,01,08,13.90
2013,07,05,01,09,13.90
2013,07,05,01,10,13.90
2013,07,05,01,11,13.90
2013,07,05,01,12,13.80
2013,07,05,01,13,13.80
2013,07,05,01,14,13.80
2013,07,05,01,15,13.80
2013,07,05,01,16,13.80
2013,07,05,01,17,13.80
2013,07,05,01,18,13.80
2013,07,05,01,19,13.80
2013,07,05,01,20,13.80
2013,07,05,01,21,13.70
2013,07,05,01,22,13.70
2013,07,05,01,23,13.70
2013,07,05,01,24,13.70
2013,07,05,01,25,13.70
2013,07,05,01,26,13.70
2013,07,05,01,27,13.60
2013,07,05,01,28,13.60
2013,07,05,01,29,13.60
2013,07,05,01,30,13.60
2013,07,05,01,31,13.60
2013,07,05,01,32,13.60
2013,07,05,01,33,13.50
2013,07,05,01,34,13.50
2013,07,05,01,35,13.50
2013,07,05,01,36,13.50
2013,07,05,01,37,13.40
2013,07,05,01,38,13.40
2013,07,05,01,39,13.40
2013,07,05,01,40,13.40
2013,07,05,01,41,13.40
2013,07,05,01,42,13.40
2013,07,05,01,43,13.40
2013,07,05,01,44,13.40
2013,07,05,01,45,13.40
2013,07,05,01,46,13.40
2013,07,05,01,47,13.40
2013,07,05,01,48,13.40
2013,07,05,01,49,13.30
2013,07,05,01,50,13.30
2013,07,05,01,51,13.30
2013,07,05,01,52,13.30
2013,07,05,01,53,13.40
2013,07,05,01,54,13.40
2013,07,05,01,55,13.40
2013,07,05,01,56,13.40
2013,07,05,01,57,13.40
2013,07,05,01,58,13.30
2013,07,05,01,59,13.30
2013,07,05,02,00,13.30
2013,07,05,02,01,13.30
2013,07,05,02,02,13.30
2013,07,05,02,03,13.40
2013,07,05,02,04,13.40
2013,07,05,02,05,13.40
2013,07,05,02,06,13.40
2013,07,05,02,07,13.40
2013,07,05,02,08,13.30
2013,07,05,02,09,13.30
2013,07,05,02,10,13.30
2013,07,05,02,11,13.30
2013,07,05,02,12,13.30
2013,07,05,02,13,13.30
2013,07,05,02,14,13.30
2013,07,05,02,15,13.30
2013,07,05,02,16,13.30
2013,07,05,02,17,13.20
2013,07,05,02,18,13.20
2013,07,05,02,19,13.20
2013,07,05,02,20,13.20
2013,07,05,02,21,13.20
2013,07,05,02,22,13.20
2013,07,05,02,23,13.20
2013,07,05,02,24,13.20
2013,07,05,02,25,13.10
2013,07,05,02,26,13.10
2013,07,05,02,27,13.10
2013,07,05,02,28,13.10
2013,07,05,02,29,13.10
2013,07,05,02,30,13.10
2013,07,05,02,31,13.10
2013,07,05,02,32,13.00
2013,07,05,02,33,13.00
2013,07,05,02,34,13.00
2013,07,05,02,35,13.00
2013,07,05,02,36,13.00
2013,07,05,02,37,12.90
2013,07,05,02,38,12.90
2013,07,05,02,39,12.90
2013,07,05,02,40,12.90
2013,07,05,02,41,12.90
2013,07,05,02,42,12.90
2013,07,05,02,43,12.90
2013,07,05,02,44,12.80
2013,07,05,02,45,12.80
2013,07,05,02,46,12.80
2013,07,05,02,47,12.80
2013,07,05,02,48,12.80
2013,07,05,02,49,12.80
2013,07,05,02,50,12.80
2013,07,05,02,51,12.80
2013,07,05,02,52,12.80
2013,07,05,02,53,12.80
2013,07,05,02,54,12.80
2013,07,05,02,55,12.70
2013,07,05,02,56,12.70
2013,07,05,02,57,12.70
2013,07,05,02,58,12.70
2013,07,05,02,59,12.70
2013,07,05,03,00,12.70
2013,07,05,03,01,12.70
2013,07,05,03,02,12.70
2013,07,05,03,03,12.70
2013,07,05,03,04,12.70
2013,07,05,03,05,12.70
2013,07,05,03,06,12.70
2013,07,05,03,07,12.70
2013,07,05,03,08,12.70
2013,07,05,03,09,12.70
2013,07,05,03,10,12.70
2013,07,05,03,11,12.60
2013,07,05,03,12,12.60
2013,07,05,03,13,12.60
2013,07,05,03,14,12.60
2013,07,05,03,15,12.60
2013,07,05,03,16,12.60
2013,07,05,03,17,12.60
2013,07,05,03,18,12.50
2013,07,05,03,19,12.50
2013,07,05,03,20,12.50
2013,07,05,03,21,12.50
2013,07,05,03,22,12.50
2013,07,05,03,23,12.50
2013,07,05,03,24,12.40
2013,07,05,03,25,12.40
2013,07,05,03,26,12.40
2013,07,05,03,27,12.40
2013,07,05,03,28,12.40
2013,07,05,03,29,12.40
2013,07,05,03,30,12.40
2013,07,05,03,31,12.40
2013,07,05,03,32,12.30
2013,07,05,03,33,12.30
2013,07,05,03,34,12.30
2013,07,05,03,35,12.30
2013,07,05,03,36,12.30
2013,07,05,03,37,12.30
2013,07,05,03,38,12.30
2013,07,05,03,39,12.30
2013,07,05,03,40,12.20
2013,07,05,03,41,12.20
2013,07,05,03,42,12.20
2013,07,05,03,43,12.20
2013,07,05,03,44,12.20
2013,07,05,03,45,12.20
2013,07,05,03,46,12.10
2013,07,05,03,47,12.10
2013,07,05,03,48,12.10
2013,07,05,03,49,12.10
2013,07,05,03,50,12.10
2013,07,05,03,51,12.10
2013,07,05,03,52,12.10
2013,07,05,03,53,12.10
2013,07,05,03,54,12.10
2013,07,05,03,55,12.10
2013,07,05,03,56,12.10
2013,07,05,03,57,12.10
2013,07,05,03,58,12.10
2013,07,05,03,59,12.10
2013,07,05,04,00,12.10
2013,07,05,04,01,12.10
2013,07,05,04,02,12.10
2013,07,05,04,03,12.10
2013,07,05,04,04,12.10
2013,07,05,04,05,12.10
2013,07,05,04,06,12.10
2013,07,05,04,07,12.10
2013,07,05,04,08,12.10
2013,07,05,04,09,12.10
2013,07,05,04,10,12.10
2013,07,05,04,11,12.10
2013,07,05,04,12,12.10
2013,07,05,04,13,12.10
2013,07,05,04,14,12.10
2013,07,05,04,15,12.10
2013,07,05,04,16,12.10
2013,07,05,04,17,12.10
2013,07,05,04,18,12.10
2013,07,05,04,19,12.10
2013,07,05,04,20,12.10
2013,07,05,04,21,12.10
2013,07,05,04,22,12.10
2013,07,05,04,23,12.10
2013,07,05,04,24,12.10
2013,07,05,04,25,12.10
2013,07,05,04,26,12.10
2013,07,05,04,27,12.10
2013,07,05,04,28,12.10
2013,07,05,04,29,12.10
2013,07,05,04,30,12.10
2013,07,05,04,31,12.10
2013,07,05,04,32,12.10
2013,07,05,04,33,12.10
2013,07,05,04,34,12.10
2013,07,05,04,35,12.10
2013,07,05,04,36,12.10
2013,07,05,04,37,12.10
2013,07,05,04,38,12.10
2013,07,05,04,39,12.10
2013,07,05,04,40,12.00
2013,07,05,04,41,12.00
2013,07,05,04,42,12.00
2013,07,05,04,43,11.90
2013,07,05,04,44,11.90
2013,07,05,04,45,11.90
2013,07,05,04,46,11.90
2013,07,05,04,47,11.90
2013,07,05,04,48,11.90
2013,07,05,04,49,11.90
2013,07,05,04,50,11.80
2013,07,05,04,51,11.80
2013,07,05,04,52,11.80
2013,07,05,04,53,11.80
2013,07,05,04,54,11.80
2013,07,05,04,55,11.80
2013,07,05,04,56,11.70
2013,07,05,04,57,11.70
2013,07,05,04,58,11.70
2013,07,05,04,59,11.70
2013,07,05,05,00,11.70
2013,07,05,05,01,11.70
2013,07,05,05,02,11.70
2013,07,05,05,03,11.70
2013,07,05,05,04,11.70
2013,07,05,05,05,11.70
2013,07,05,05,06,11.70
2013,07,05,05,07,11.70
2013,07,05,05,08,11.70
2013,07,05,05,09,11.70
2013,07,05,05,10,11.70
2013,07,05,05,11,11.70
2013,07,05,05,12,11.60
2013,07,05,05,13,11.60
2013,07,05,05,14,11.60
2013,07,05,05,15,11.60
2013,07,05,05,16,11.60
2013,07,05,05,17,11.60
2013,07,05,05,18,11.60
2013,07,05,05,19,11.60
2013,07,05,05,20,11.60
2013,07,05,05,21,11.60
2013,07,05,05,22,11.50
2013,07,05,05,23,11.50
2013,07,05,05,24,11.50
2013,07,05,05,25,11.50
2013,07,05,05,26,11.40
2013,07,05,05,27,11.40
2013,07,05,05,28,11.40
2013,07,05,05,29,11.40
2013,07,05,05,30,11.40
2013,07,05,05,31,11.40
2013,07,05,05,32,11.40
2013,07,05,05,33,11.40
2013,07,05,05,34,11.40
2013,07,05,05,35,11.40
2013,07,05,05,36,11.40
2013,07,05,05,37,11.40
2013,07,05,05,38,11.40
2013,07,05,05,39,11.40
2013,07,05,05,40,11.40
2013,07,05,05,41,11.50
2013,07,05,05,42,11.50
2013,07,05,05,43,11.50
2013,07,05,05,44,11.50
2013,07,05,05,45,11.50
2013,07,05,05,46,11.50
2013,07,05,05,47,11.50
2013,07,05,05,48,11.60
2013,07,05,05,49,11.60
2013,07,05,05,50,11.60
2013,07,05,05,51,11.60
2013,07,05,05,52,11.60
2013,07,05,05,53,11.60
2013,07,05,05,54,11.60
2013,07,05,05,55,11.60
2013,07,05,05,56,11.60
2013,07,05,05,57,11.60
2013,07,05,05,58,11.60
2013,07,05,05,59,11.70
2013,07,05,06,00,11.70
2013,07,05,06,01,11.70
2013,07,05,06,02,11.70
2013,07,05,06,03,11.80
2013,07,05,06,04,11.80
2013,07,05,06,05,11.80
2013,07,05,06,06,11.80
2013,07,05,06,07,11.90
2013,07,05,06,08,11.90
2013,07,05,06,09,12.00
2013,07,05,06,10,12.10
2013,07,05,06,11,12.10
2013,07,05,06,12,12.20
2013,07,05,06,13,12.20
2013,07,05,06,14,12.20
2013,07,05,06,15,12.30
2013,07,05,06,16,12.30
2013,07,05,06,17,12.30
2013,07,05,06,18,12.40
2013,07,05,06,19,12.40
2013,07,05,06,20,12.40
2013,07,05,06,21,12.40
2013,07,05,06,22,12.50
2013,07,05,06,23,12.50
2013,07,05,06,24,12.50
2013,07,05,06,25,12.50
2013,07,05,06,26,12.50
2013,07,05,06,27,12.50
2013,07,05,06,28,12.60
2013,07,05,06,29,12.60
2013,07,05,06,30,12.70
2013,07,05,06,31,12.80
2013,07,05,06,32,12.80
2013,07,05,06,33,12.90
2013,07,05,06,34,13.00
2013,07,05,06,35,13.00
2013,07,05,06,36,13.10
2013,07,05,06,37,13.10
2013,07,05,06,38,13.20
2013,07,05,06,39,13.20
2013,07,05,06,40,13.30
2013,07,05,06,41,13.30
2013,07,05,06,42,13.40
2013,07,05,06,43,13.40
2013,07,05,06,44,13.50
2013,07,05,06,45,13.60
2013,07,05,06,46,13.70
2013,07,05,06,47,13.70
2013,07,05,06,48,13.80
2013,07,05,06,49,13.90
2013,07,05,06,50,14.00
2013,07,05,06,51,14.10
2013,07,05,06,52,14.10
2013,07,05,06,53,14.20
2013,07,05,06,54,14.20
2013,07,05,06,55,14.30
2013,07,05,06,56,14.40
2013,07,05,06,57,14.40
2013,07,05,06,58,14.50
2013,07,05,06,59,14.60
2013,07,05,07,00,14.70
2013,07,05,07,01,14.70
2013,07,05,07,02,14.80
2013,07,05,07,03,14.80
2013,07,05,07,04,14.80
2013,07,05,07,05,14.90
2013,07,05,07,06,14.90
2013,07,05,07,07,15.00
2013,07,05,07,08,15.00
2013,07,05,07,09,15.10
2013,07,05,07,10,15.20
2013,07,05,07,11,15.30
2013,07,05,07,12,15.30
2013,07,05,07,13,15.40
2013,07,05,07,14,15.50
2013,07,05,07,15,15.60
2013,07,05,07,16,15.70
2013,07,05,07,17,15.80
2013,07,05,07,18,15.80
2013,07,05,07,19,15.90
2013,07,05,07,20,15.90
2013,07,05,07,21,15.90
2013,07,05,07,22,15.90
2013,07,05,07,23,16.00
2013,07,05,07,24,16.00
2013,07,05,07,25,15.90
2013,07,05,07,26,15.90
2013,07,05,07,27,15.90
2013,07,05,07,28,15.90
2013,07,05,07,29,15.90
2013,07,05,07,30,15.80
2013,07,05,07,31,15.90
2013,07,05,07,32,15.80
2013,07,05,07,33,15.90
2013,07,05,07,34,15.90
2013,07,05,07,35,15.90
2013,07,05,07,36,15.90
2013,07,05,07,37,16.00
2013,07,05,07,38,16.00
2013,07,05,07,39,16.10
2013,07,05,07,40,16.10
2013,07,05,07,41,16.20
2013,07,05,07,42,16.20
2013,07,05,07,43,16.30
2013,07,05,07,44,16.30
2013,07,05,07,45,16.40
2013,07,05,07,46,16.50
2013,07,05,07,47,16.50
2013,07,05,07,48,16.60
2013,07,05,07,49,16.70
2013,07,05,07,50,16.70
2013,07,05,07,51,16.80
2013,07,05,07,52,16.80
2013,07,05,07,53,16.90
2013,07,05,07,54,16.90
2013,07,05,07,55,17.00
2013,07,05,07,56,17.10
2013,07,05,07,57,17.10
2013,07,05,07,58,17.20
2013,07,05,07,59,17.20
2013,07,05,08,00,17.30
2013,07,05,08,01,17.30
2013,07,05,08,02,17.40
2013,07,05,08,03,17.40
2013,07,05,08,04,17.50
2013,07,05,08,05,17.50
2013,07,05,08,06,17.60
2013,07,05,08,07,17.60
2013,07,05,08,08,17.70
2013,07,05,08,09,17.70
2013,07,05,08,10,17.80
2013,07,05,08,11,17.80
2013,07,05,08,12,17.80
2013,07,05,08,13,17.80
2013,07,05,08,14,17.90
2013,07,05,08,15,17.90
2013,07,05,08,16,17.90
2013,07,05,08,17,18.00
2013,07,05,08,18,18.00
2013,07,05,08,19,18.10
2013,07,05,08,20,18.20
2013,07,05,08,21,18.20
2013,07,05,08,22,18.30
2013,07,05,08,23,18.30
2013,07,05,08,24,18.30
2013,07,05,08,25,18.30
2013,07,05,08,26,18.40
2013,07,05,08,27,18.50
2013,07,05,08,28,18.60
2013,07,05,08,29,18.60
2013,07,05,08,30,18.60
2013,07,05,08,31,18.60
2013,07,05,08,32,18.60
2013,07,05,08,33,18.60
2013,07,05,08,34,18.60
2013,07,05,08,35,18.60
2013,07,05,08,36,18.60
2013,07,05,08,37,18.60
2013,07,05,08,38,18.50
2013,07,05,08,39,18.40
2013,07,05,08,40,18.40
2013,07,05,08,41,18.50
2013,07,05,08,42,18.50
2013,07,05,08,43,18.60
2013,07,05,08,44,18.60
2013,07,05,08,45,18.60
2013,07,05,08,46,18.60
2013,07,05,08,47,18.60
2013,07,05,08,48,18.60
2013,07,05,08,49,18.70
2013,07,05,08,50,18.70
2013,07,05,08,51,18.60
2013,07,05,08,52,18.60
2013,07,05,08,53,18.60
2013,07,05,08,54,18.70
2013,07,05,08,55,18.70
2013,07,05,08,56,18.70
2013,07,05,08,57,18.80
2013,07,05,08,58,18.80
2013,07,05,08,59,18.80
2013,07,05,09,00,18.80
2013,07,05,09,01,18.80
2013,07,05,09,02,18.80
2013,07,05,09,03,18.80
2013,07,05,09,04,18.80
2013,07,05,09,05,18.90
2013,07,05,09,06,18.90
2013,07,05,09,07,19.00
2013,07,05,09,08,19.00
2013,07,05,09,09,19.10
2013,07,05,09,10,19.10
2013,07,05,09,11,19.20
2013,07,05,09,12,19.30
2013,07,05,09,13,19.40
2013,07,05,09,14,19.50
2013,07,05,09,15,19.60
2013,07,05,09,16,19.60
2013,07,05,09,17,19.70
2013,07,05,09,18,19.80
2013,07,05,09,19,19.80
2013,07,05,09,20,19.80
2013,07,05,09,21,19.80
2013,07,05,09,22,19.70
2013,07,05,09,23,19.70
2013,07,05,09,24,19.60
2013,07,05,09,25,19.60
2013,07,05,09,26,19.60
2013,07,05,09,27,19.60
2013,07,05,09,28,19.50
2013,07,05,09,29,19.40
2013,07,05,09,30,19.30
2013,07,05,09,31,19.20
2013,07,05,09,32,19.10
2013,07,05,09,33,19.10
2013,07,05,09,34,19.00
2013,07,05,09,35,18.90
2013,07,05,09,36,18.90
2013,07,05,09,37,18.90
2013,07,05,09,38,18.90
2013,07,05,09,39,18.90
2013,07,05,09,40,18.90
2013,07,05,09,41,18.90
2013,07,05,09,42,18.90
2013,07,05,09,43,18.90
2013,07,05,09,44,18.80
2013,07,05,09,45,18.80
2013,07,05,09,46,18.80
2013,07,05,09,47,18.80
2013,07,05,09,48,18.70
2013,07,05,09,49,18.60
2013,07,05,09,50,18.60
2013,07,05,09,51,18.70
2013,07,05,09,52,18.70
2013,07,05,09,53,18.80
2013,07,05,09,54,18.80
2013,07,05,09,55,18.90
2013,07,05,09,56,18.90
2013,07,05,09,57,19.00
2013,07,05,09,58,19.10
2013,07,05,09,59,19.10
2013,07,05,10,00,19.20
2013,07,05,10,01,19.20
2013,07,05,10,02,19.30
2013,07,05,10,03,19.30
2013,07,05,10,04,19.30
2013,07,05,10,05,19.30
2013,07,05,10,06,19.20
2013,07,05,10,07,19.20
2013,07,05,10,08,19.20
2013,07,05,10,09,19.20
2013,07,05,10,10,19.20
2013,07,05,10,11,19.20
2013,07,05,10,12,19.20
2013,07,05,10,13,19.30
2013,07,05,10,14,19.40
2013,07,05,10,15,19.50
2013,07,05,10,16,19.60
2013,07,05,10,17,19.70
2013,07,05,10,18,19.70
2013,07,05,10,19,19.70
2013,07,05,10,20,19.80
2013,07,05,10,21,19.70
2013,07,05,10,22,19.70
2013,07,05,10,23,19.60
2013,07,05,10,24,19.50
2013,07,05,10,25,19.50
2013,07,05,10,26,19.50
2013,07,05,10,27,19.50
2013,07,05,10,28,19.50
2013,07,05,10,29,19.60
2013,07,05,10,30,19.70
2013,07,05,10,31,19.80
2013,07,05,10,32,19.90
2013,07,05,10,33,20.00
2013,07,05,10,34,20.10
2013,07,05,10,35,20.20
2013,07,05,10,36,20.30
2013,07,05,10,37,20.30
2013,07,05,10,38,20.40
2013,07,05,10,39,20.40
2013,07,05,10,40,20.40
2013,07,05,10,41,20.30
2013,07,05,10,42,20.20
2013,07,05,10,43,20.00
2013,07,05,10,44,19.90
2013,07,05,10,45,19.80
2013,07,05,10,46,19.80
2013,07,05,10,47,19.70
2013,07,05,10,48,19.70
2013,07,05,10,49,19.60
2013,07,05,10,50,19.60
2013,07,05,10,51,19.60
2013,07,05,10,52,19.70
2013,07,05,10,53,19.70
2013,07,05,10,54,19.70
2013,07,05,10,55,19.60
2013,07,05,10,56,19.60
2013,07,05,10,57,19.50
2013,07,05,10,58,19.40
2013,07,05,10,59,19.30
2013,07,05,11,00,19.30
2013,07,05,11,01,19.30
2013,07,05,11,02,19.30
2013,07,05,11,03,19.40
2013,07,05,11,04,19.50
2013,07,05,11,05,19.70
2013,07,05,11,06,19.80
2013,07,05,11,07,20.00
2013,07,05,11,08,20.10
2013,07,05,11,09,20.20
2013,07,05,11,10,20.20
2013,07,05,11,11,20.20
2013,07,05,11,12,20.10
2013,07,05,11,13,20.00
2013,07,05,11,14,19.90
2013,07,05,11,15,19.70
2013,07,05,11,16,19.60
2013,07,05,11,17,19.60
2013,07,05,11,18,19.70
2013,07,05,11,19,19.70
2013,07,05,11,20,19.70
2013,07,05,11,21,19.70
2013,07,05,11,22,19.70
2013,07,05,11,23,19.80
2013,07,05,11,24,19.90
2013,07,05,11,25,20.00
2013,07,05,11,26,20.10
2013,07,05,11,27,20.20
2013,07,05,11,28,20.30
2013,07,05,11,29,20.30
2013,07,05,11,30,20.30
2013,07,05,11,31,20.20
2013,07,05,11,32,20.10
2013,07,05,11,33,20.00
2013,07,05,11,34,19.90
2013,07,05,11,35,19.80
2013,07,05,11,36,19.70
2013,07,05,11,37,19.70
2013,07,05,11,38,19.60
2013,07,05,11,39,19.60
2013,07,05,11,40,19.60
2013,07,05,11,41,19.60
2013,07,05,11,42,19.60
2013,07,05,11,43,19.60
2013,07,05,11,44,19.60
2013,07,05,11,45,19.70
2013,07,05,11,46,19.80
2013,07,05,11,47,19.90
2013,07,05,11,48,20.00
2013,07,05,11,49,20.00
2013,07,05,11,50,20.00
2013,07,05,11,51,20.10
2013,07,05,11,52,20.10
2013,07,05,11,53,20.10
2013,07,05,11,54,20.10
2013,07,05,11,55,20.10
2013,07,05,11,56,20.20
2013,07,05,11,57,20.20
2013,07,05,11,58,20.20
2013,07,05,11,59,20.30
2013,07,05,12,00,20.30
2013,07,05,12,01,20.20
2013,07,05,12,02,20.10
2013,07,05,12,03,20.10
2013,07,05,12,04,19.90
2013,07,05,12,05,19.80
2013,07,05,12,06,19.70
2013,07,05,12,07,19.70
2013,07,05,12,08,19.70
2013,07,05,12,09,19.70
2013,07,05,12,10,19.70
2013,07,05,12,11,19.70
2013,07,05,12,12,19.70
2013,07,05,12,13,19.70
2013,07,05,12,14,19.80
2013,07,05,12,15,20.00
2013,07,05,12,16,20.20
2013,07,05,12,17,20.20
2013,07,05,12,18,20.30
2013,07,05,12,19,20.30
2013,07,05,12,20,20.40
2013,07,05,12,21,20.40
2013,07,05,12,22,20.40
2013,07,05,12,23,20.40
2013,07,05,12,24,20.30
2013,07,05,12,25,20.20
2013,07,05,12,26,20.20
2013,07,05,12,27,20.20
2013,07,05,12,28,20.30
2013,07,05,12,29,20.40
2013,07,05,12,30,20.40
2013,07,05,12,31,20.40
2013,07,05,12,32,20.20
2013,07,05,12,33,20.20
2013,07,05,12,34,20.20
2013,07,05,12,35,20.20
2013,07,05,12,36,20.30
2013,07,05,12,37,20.20
2013,07,05,12,38,20.10
2013,07,05,12,39,20.10
2013,07,05,12,40,20.10
2013,07,05,12,41,20.10
2013,07,05,12,42,20.10
2013,07,05,12,43,20.10
2013,07,05,12,44,20.10
2013,07,05,12,45,20.10
2013,07,05,12,46,20.10
2013,07,05,12,47,20.10
2013,07,05,12,48,20.10
2013,07,05,12,49,20.10
2013,07,05,12,50,20.20
2013,07,05,12,51,20.20
2013,07,05,12,52,20.30
2013,07,05,12,53,20.30
2013,07,05,12,54,20.20
2013,07,05,12,55,20.10
2013,07,05,12,56,20.00
2013,07,05,12,57,20.00
2013,07,05,12,58,20.10
2013,07,05,12,59,20.00
2013,07,05,13,00,19.90
2013,07,05,13,01,19.80
2013,07,05,13,02,19.60
2013,07,05,13,03,19.60
2013,07,05,13,04,19.60
2013,07,05,13,05,19.60
2013,07,05,13,06,19.60
2013,07,05,13,07,19.70
2013,07,05,13,08,19.70
2013,07,05,13,09,19.70
2013,07,05,13,10,19.70
2013,07,05,13,11,19.80
2013,07,05,13,12,19.80
2013,07,05,13,13,19.80
2013,07,05,13,14,19.90
2013,07,05,13,15,19.90
2013,07,05,13,16,19.90
2013,07,05,13,17,19.70
2013,07,05,13,18,19.60
2013,07,05,13,19,19.50
2013,07,05,13,20,19.40
2013,07,05,13,21,19.40
2013,07,05,13,22,19.40
2013,07,05,13,23,19.30
2013,07,05,13,24,19.20
2013,07,05,13,25,19.20
2013,07,05,13,26,19.30
2013,07,05,13,27,19.40
2013,07,05,13,28,19.50
2013,07,05,13,29,19.60
2013,07,05,13,30,19.50
2013,07,05,13,31,19.40
2013,07,05,13,32,19.50
2013,07,05,13,33,19.50
2013,07,05,13,34,19.50
2013,07,05,13,35,19.50
2013,07,05,13,36,19.40
2013,07,05,13,37,19.50
2013,07,05,13,38,19.60
2013,07,05,13,39,19.70
2013,07,05,13,40,19.70
2013,07,05,13,41,19.70
2013,07,05,13,42,19.70
2013,07,05,13,43,19.80
2013,07,05,13,44,19.90
2013,07,05,13,45,20.00
2013,07,05,13,46,20.10
2013,07,05,13,47,20.10
2013,07,05,13,48,20.10
2013,07,05,13,49,20.10
2013,07,05,13,50,20.00
2013,07,05,13,51,19.90
2013,07,05,13,52,19.80
2013,07,05,13,53,19.60
2013,07,05,13,54,19.50
2013,07,05,13,55,19.50
2013,07,05,13,56,19.40
2013,07,05,13,57,19.30
2013,07,05,13,58,19.30
2013,07,05,13,59,19.40
2013,07,05,14,00,19.40
2013,07,05,14,01,19.50
2013,07,05,14,02,19.60
2013,07,05,14,03,19.60
2013,07,05,14,04,19.70
2013,07,05,14,05,19.80
2013,07,05,14,06,19.70
2013,07,05,14,07,19.60
2013,07,05,14,08,19.60
2013,07,05,14,09,19.60
2013,07,05,14,10,19.50
2013,07,05,14,11,19.50
2013,07,05,14,12,19.40
2013,07,05,14,13,19.30
2013,07,05,14,14,19.30
2013,07,05,14,15,19.20
2013,07,05,14,16,19.20
2013,07,05,14,17,19.20
2013,07,05,14,18,19.20
2013,07,05,14,19,19.30
2013,07,05,14,20,19.30
2013,07,05,14,21,19.40
2013,07,05,14,22,19.50
2013,07,05,14,23,19.50
2013,07,05,14,24,19.60
2013,07,05,14,25,19.60
2013,07,05,14,26,19.70
2013,07,05,14,27,19.80
2013,07,05,14,28,19.70
2013,07,05,14,29,19.70
2013,07,05,14,30,19.60
2013,07,05,14,31,19.60
2013,07,05,14,32,19.60
2013,07,05,14,33,19.60
2013,07,05,14,34,19.50
2013,07,05,14,35,19.40
2013,07,05,14,36,19.40
2013,07,05,14,37,19.40
2013,07,05,14,38,19.40
2013,07,05,14,39,19.40
2013,07,05,14,40,19.50
2013,07,05,14,41,19.50
2013,07,05,14,42,19.60
2013,07,05,14,43,19.70
2013,07,05,14,44,19.80
2013,07,05,14,45,19.80
2013,07,05,14,46,19.80
2013,07,05,14,47,19.80
2013,07,05,14,48,19.80
2013,07,05,14,49,19.90
2013,07,05,14,50,19.80
2013,07,05,14,51,19.80
2013,07,05,14,52,19.70
2013,07,05,14,53,19.70
2013,07,05,14,54,19.80
2013,07,05,14,55,19.90
2013,07,05,14,56,20.00
2013,07,05,14,57,20.10
2013,07,05,14,58,20.10
2013,07,05,14,59,20.10
2013,07,05,15,00,20.00
2013,07,05,15,01,20.10
2013,07,05,15,02,20.10
2013,07,05,15,03,20.00
2013,07,05,15,04,20.00
2013,07,05,15,05,20.00
2013,07,05,15,06,19.90
2013,07,05,15,07,19.80
2013,07,05,15,08,19.70
2013,07,05,15,09,19.60
2013,07,05,15,10,19.60
2013,07,05,15,11,19.60
2013,07,05,15,12,19.60
2013,07,05,15,13,19.70
2013,07,05,15,14,19.70
2013,07,05,15,15,19.80
2013,07,05,15,16,19.80
2013,07,05,15,17,19.80
2013,07,05,15,18,19.80
2013,07,05,15,19,19.90
2013,07,05,15,20,19.90
2013,07,05,15,21,19.90
2013,07,05,15,22,19.90
2013,07,05,15,23,20.00
2013,07,05,15,24,20.10
2013,07,05,15,25,20.30
2013,07,05,15,26,20.40
2013,07,05,15,27,20.40
2013,07,05,15,28,20.50
2013,07,05,15,29,20.50
2013,07,05,15,30,20.60
2013,07,05,15,31,20.60
2013,07,05,15,32,20.60
2013,07,05,15,33,20.50
2013,07,05,15,34,20.40
2013,07,05,15,35,20.30
2013,07,05,15,36,20.20
2013,07,05,15,37,20.20
2013,07,05,15,38,20.30
2013,07,05,15,39,20.30
2013,07,05,15,40,20.40
2013,07,05,15,41,20.40
2013,07,05,15,42,20.40
2013,07,05,15,43,20.40
2013,07,05,15,44,20.30
2013,07,05,15,45,20.30
2013,07,05,15,46,20.30
2013,07,05,15,47,20.30
2013,07,05,15,48,20.20
2013,07,05,15,49,20.20
2013,07,05,15,50,20.20
2013,07,05,15,51,20.20
2013,07,05,15,52,20.20
2013,07,05,15,53,20.30
2013,07,05,15,54,20.30
2013,07,05,15,55,20.30
2013,07,05,15,56,20.40
2013,07,05,15,57,20.40
2013,07,05,15,58,20.50
2013,07,05,15,59,20.50
2013,07,05,16,00,20.60
2013,07,05,16,01,20.70
2013,07,05,16,02,20.80
2013,07,05,16,03,20.80
2013,07,05,16,04,20.90
2013,07,05,16,05,20.90
2013,07,05,16,06,20.90
2013,07,05,16,07,20.80
2013,07,05,16,08,20.70
2013,07,05,16,09,20.70
2013,07,05,16,10,20.70
2013,07,05,16,11,20.70
2013,07,05,16,12,20.70
2013,07,05,16,13,20.70
2013,07,05,16,14,20.80
2013,07,05,16,15,20.80
2013,07,05,16,16,20.80
2013,07,05,16,17,20.80
2013,07,05,16,18,20.80
2013,07,05,16,19,20.80
2013,07,05,16,20,20.80
2013,07,05,16,21,20.90
2013,07,05,16,22,20.90
2013,07,05,16,23,20.90
2013,07,05,16,24,20.90
2013,07,05,16,25,20.90
2013,07,05,16,26,20.90
2013,07,05,16,27,20.90
2013,07,05,16,28,20.90
2013,07,05,16,29,20.80
2013,07,05,16,30,20.80
2013,07,05,16,31,20.80
2013,07,05,16,32,20.80
2013,07,05,16,33,20.80
2013,07,05,16,34,20.80
2013,07,05,16,35,20.70
2013,07,05,16,36,20.70
2013,07,05,16,37,20.70
2013,07,05,16,38,20.70
2013,07,05,16,39,20.70
2013,07,05,16,40,20.70
2013,07,05,16,41,20.80
2013,07,05,16,42,20.80
2013,07,05,16,43,20.80
2013,07,05,16,44,20.70
2013,07,05,16,45,20.70
2013,07,05,16,46,20.70
2013,07,05,16,47,20.70
2013,07,05,16,48,20.80
2013,07,05,16,49,20.80
2013,07,05,16,50,20.90
2013,07,05,16,51,21.00
2013,07,05,16,52,21.10
2013,07,05,16,53,21.20
2013,07,05,16,54,21.20
2013,07,05,16,55,21.20
2013,07,05,16,56,21.20
2013,07,05,16,57,21.20
2013,07,05,16,58,21.20
2013,07,05,16,59,21.20
2013,07,05,17,00,21.20
2013,07,05,17,01,21.30
2013,07,05,17,02,21.30
2013,07,05,17,03,21.30
2013,07,05,17,04,21.20
2013,07,05,17,05,21.20
2013,07,05,17,06,21.10
2013,07,05,17,07,21.10
2013,07,05,17,08,21.10
2013,07,05,17,09,21.10
2013,07,05,17,10,21.10
2013,07,05,17,11,21.10
2013,07,05,17,12,21.20
2013,07,05,17,13,21.20
2013,07,05,17,14,21.20
2013,07,05,17,15,21.20
2013,07,05,17,16,21.20
2013,07,05,17,17,21.10
2013,07,05,17,18,21.00
2013,07,05,17,19,20.90